Weather History for Yankton, SD

Change the Weather History Date:

Friday, November 23, 2012

  Actual Average Record
Temperature  
Mean Temperature 24 °F -  
Max Temperature 30 °F 40 °F 71 °F (1974)
Min Temperature 17 °F 21 °F -3 °F (1975)
Degree Days  
Heating Degree Days 42    
Moisture  
Dew Point 10 °F    
Average Humidity 59    
Maximum Humidity 74    
Minimum Humidity 37    
Precipitation  
Precipitation 0.00 in - - ()
Sea Level Pressure  
Sea Level Pressure 30.43 in    
Wind  
Wind Speed 20 mph (NW)    
Max Wind Speed 34 mph    
Max Gust Speed 43 mph    
Visibility 10 miles    
Events      
Averages and records for this station are not official NWS values.
T = Trace of Precipitation, MM = Missing Value Source: NWS Daily Summary

Daily Weather History Graph

Daily Weather History Graph

Search for Another Location

Airport:

Trip Planner

Search our weather history database for the weather conditions in past years. The results will help you decide how hot, cold, wet, or windy it might be!

Date:

Astronomy

Nov. 23, 2012 Rise Set
Actual Time 7:32 AM CST 4:59 PM CST
Civil Twilight 7:01 AM CST 5:30 PM CST
Nautical Twilight 6:26 AM CST 6:05 PM CST
Astronomical Twilight 5:52 AM CST 6:39 PM CST
Moon 2:20 PM CST 2:46 AM CST
Length of Visible Light 10h 29m
Length of Day
9h 27m
Waxing Gibbous, 80% of the Moon is Illuminated
Nov 23
Waxing Gibbous
Nov 28
Full
Dec 6
Last Quarter
Dec 13
New
Dec 19
First Quarter

Hourly Weather History & Observations

Time (CST) Temp. Windchill Dew Point Humidity Pressure Visibility Wind Dir Wind Speed Gust Speed Precip Events Conditions
12:15 AM 28.4 °F 11.8 °F 12.2 °F 51% 30.32 in 10.0 mi WNW 34.5 mph 42.6 mph N/A   Overcast
12:35 AM 28.4 °F 12.3 °F 12.2 °F 51% 30.32 in 10.0 mi WNW 32.2 mph 41.4 mph N/A   Overcast
12:55 AM 26.6 °F 11.4 °F 12.2 °F 55% 30.33 in 10.0 mi NW 25.3 mph 40.3 mph N/A   Overcast
1:15 AM 26.6 °F 10.8 °F 12.2 °F 55% 30.34 in 10.0 mi WNW 27.6 mph 36.8 mph N/A   Overcast
1:35 AM 26.6 °F 10.6 °F 12.2 °F 55% 30.35 in 10.0 mi WNW 28.8 mph 35.7 mph N/A   Overcast
1:55 AM 24.8 °F 8.7 °F 12.2 °F 59% 30.36 in 10.0 mi WNW 26.5 mph 36.8 mph N/A   Overcast
2:15 AM 24.8 °F 9.6 °F 12.2 °F 59% 30.38 in 10.0 mi NW 23.0 mph 31.1 mph N/A   Mostly Cloudy
2:35 AM 24.8 °F 8.4 °F 12.2 °F 59% 30.39 in 10.0 mi NW 27.6 mph 36.8 mph N/A   Mostly Cloudy
2:55 AM 23.0 °F 6.3 °F 12.2 °F 63% 30.40 in 10.0 mi NW 26.5 mph 33.4 mph N/A   Scattered Clouds
3:15 AM 21.2 °F 4.9 °F 12.2 °F 68% 30.41 in 10.0 mi NW 23.0 mph 32.2 mph N/A   Clear
3:35 AM 21.2 °F 3.9 °F 10.4 °F 63% 30.42 in 10.0 mi WNW 26.5 mph 31.1 mph N/A   Clear
3:55 AM 21.2 °F 4.5 °F 10.4 °F 63% 30.42 in 10.0 mi WNW 24.2 mph 31.1 mph N/A   Clear
4:15 AM 21.2 °F 4.2 °F 12.2 °F 68% 30.42 in 10.0 mi WNW 25.3 mph 31.1 mph N/A   Clear
4:35 AM 21.2 °F 5.2 °F 10.4 °F 63% 30.42 in 10.0 mi WNW 21.9 mph 31.1 mph N/A   Clear
4:55 AM 19.4 °F 2.1 °F 10.4 °F 68% 30.43 in 10.0 mi WNW 24.2 mph 28.8 mph N/A   Clear
5:15 AM 19.4 °F 2.8 °F 12.2 °F 74% 30.44 in 10.0 mi WNW 21.9 mph 27.6 mph N/A   Clear
5:35 AM 19.4 °F 3.6 °F 12.2 °F 74% 30.44 in 10.0 mi WNW 19.6 mph 26.5 mph N/A   Clear
5:55 AM 19.4 °F 3.2 °F 10.4 °F 68% 30.44 in 10.0 mi WNW 20.7 mph 24.2 mph N/A   Clear
6:15 AM 19.4 °F 2.8 °F 12.2 °F 74% 30.45 in 10.0 mi WNW 21.9 mph 27.6 mph N/A   Clear
6:35 AM 19.4 °F 3.2 °F 12.2 °F 74% 30.45 in 10.0 mi WNW 20.7 mph 25.3 mph N/A   Clear
6:55 AM 19.4 °F 3.6 °F 12.2 °F 74% 30.45 in 10.0 mi WNW 19.6 mph - N/A   Clear
7:15 AM 17.6 °F 1.3 °F 10.4 °F 73% 30.46 in 10.0 mi WNW 19.6 mph - N/A   Clear
7:35 AM 17.6 °F 0.9 °F 10.4 °F 73% 30.47 in 10.0 mi WNW 20.7 mph 26.5 mph N/A   Clear
7:55 AM 17.6 °F 0.5 °F 10.4 °F 73% 30.47 in 10.0 mi WNW 21.9 mph 27.6 mph N/A   Clear
8:15 AM 19.4 °F 3.6 °F 10.4 °F 68% 30.49 in 10.0 mi WNW 19.6 mph 28.8 mph N/A   Clear
8:35 AM 19.4 °F 2.8 °F 10.4 °F 68% 30.49 in 10.0 mi WNW 21.9 mph 31.1 mph N/A   Clear
8:55 AM 19.4 °F 2.5 °F 10.4 °F 68% 30.49 in 10.0 mi NW 23.0 mph 29.9 mph N/A   Clear
9:15 AM 19.4 °F 2.8 °F 10.4 °F 68% 30.50 in 10.0 mi WNW 21.9 mph 28.8 mph N/A   Clear
9:35 AM 21.2 °F 4.2 °F 10.4 °F 63% 30.50 in 10.0 mi WNW 25.3 mph 31.1 mph N/A   Clear
9:55 AM 21.2 °F 5.6 °F 10.4 °F 63% 30.51 in 10.0 mi NW 20.7 mph 28.8 mph N/A   Clear
10:15 AM 21.2 °F 6.8 °F 10.4 °F 63% 30.51 in 10.0 mi NW 17.3 mph - N/A   Clear
10:35 AM 23.0 °F 7.6 °F 10.4 °F 59% 30.51 in 10.0 mi WNW 21.9 mph 26.5 mph N/A   Clear
10:55 AM 23.0 °F 8.0 °F 10.4 °F 59% 30.52 in 10.0 mi WNW 20.7 mph 25.3 mph N/A   Clear
11:15 AM 24.8 °F 10.3 °F 10.4 °F 54% 30.52 in 10.0 mi NW 20.7 mph 25.3 mph N/A   Clear
11:35 AM 24.8 °F 12.4 °F 10.4 °F 54% 30.51 in 10.0 mi WNW 15.0 mph 24.2 mph N/A   Clear
11:55 AM 26.6 °F 13.4 °F 10.4 °F 51% 30.51 in 10.0 mi WNW 18.4 mph 25.3 mph N/A   Clear
12:15 PM 26.6 °F 14.7 °F 10.4 °F 51% 30.51 in 10.0 mi WNW 15.0 mph 21.9 mph N/A   Clear
12:35 PM 26.6 °F 13.8 °F 10.4 °F 51% 30.50 in 10.0 mi WNW 17.3 mph 25.3 mph N/A   Clear
12:55 PM 28.4 °F 16.6 °F 10.4 °F 47% 30.48 in 10.0 mi NW 16.1 mph 26.5 mph N/A   Clear
1:15 PM 28.4 °F 16.6 °F 10.4 °F 47% 30.48 in 10.0 mi WNW 16.1 mph - N/A   Clear
1:35 PM 28.4 °F 16.6 °F 8.6 °F 43% 30.47 in 10.0 mi WNW 16.1 mph 20.7 mph N/A   Clear
1:55 PM 28.4 °F 17.0 °F 10.4 °F 47% 30.46 in 10.0 mi NW 15.0 mph 18.4 mph N/A   Clear
2:15 PM 28.4 °F 17.5 °F 8.6 °F 43% 30.46 in 10.0 mi NW 13.8 mph 23.0 mph N/A   Clear
2:35 PM 30.2 °F 19.8 °F 8.6 °F 40% 30.46 in 10.0 mi NW 13.8 mph 21.9 mph N/A   Clear
2:55 PM 30.2 °F 19.3 °F 8.6 °F 40% 30.46 in 10.0 mi WNW 15.0 mph - N/A   Clear
3:15 PM 30.2 °F 19.3 °F 6.8 °F 37% 30.45 in 10.0 mi NW 15.0 mph 19.6 mph N/A   Clear
3:35 PM 30.2 °F 19.8 °F 6.8 °F 37% 30.45 in 10.0 mi NW 13.8 mph 18.4 mph N/A   Clear
3:55 PM 30.2 °F 20.2 °F 8.6 °F 40% 30.45 in 10.0 mi NW 12.7 mph 18.4 mph N/A   Clear
4:15 PM 30.2 °F 20.2 °F 8.6 °F 40% 30.45 in 10.0 mi NW 12.7 mph 17.3 mph N/A   Clear
4:35 PM 28.4 °F 19.7 °F 10.4 °F 47% 30.44 in 10.0 mi NW 9.2 mph - N/A   Clear
4:55 PM 26.6 °F 17.5 °F 10.4 °F 51% 30.44 in 10.0 mi WNW 9.2 mph - N/A   Clear
5:15 PM 24.8 °F 16.9 °F 10.4 °F 54% 30.43 in 10.0 mi WNW 6.9 mph - N/A   Clear
5:35 PM 24.8 °F 17.9 °F 8.6 °F 50% 30.44 in 10.0 mi WNW 5.8 mph - N/A   Clear
5:55 PM 24.8 °F 17.9 °F 8.6 °F 50% 30.42 in 10.0 mi WNW 5.8 mph - N/A   Clear
6:15 PM 24.8 °F 19.1 °F 8.6 °F 50% 30.42 in 10.0 mi WNW 4.6 mph - N/A   Clear
6:35 PM 24.8 °F 19.1 °F 8.6 °F 50% 30.42 in 10.0 mi West 4.6 mph - N/A   Clear
6:55 PM 23.0 °F 15.8 °F 10.4 °F 59% 30.42 in 10.0 mi West 5.8 mph - N/A   Clear
7:15 PM 21.2 °F 16.4 °F 5.0 °F 50% 30.41 in 10.0 mi West 3.5 mph - N/A   Clear
7:35 PM 17.6 °F 12.3 °F 8.6 °F 68% 30.42 in 10.0 mi North 3.5 mph - N/A   Clear
7:55 PM 19.4 °F - 10.4 °F 68% 30.41 in 10.0 mi Calm Calm - N/A   Clear
8:15 PM 19.4 °F 14.3 °F 10.4 °F 68% 30.41 in 10.0 mi NNW 3.5 mph - N/A   Clear
8:35 PM 19.4 °F - 8.6 °F 63% 30.40 in 10.0 mi Calm Calm - N/A   Clear
8:55 PM 19.4 °F 14.3 °F 8.6 °F 63% 30.39 in 10.0 mi NNE 3.5 mph - N/A   Clear
9:15 PM 19.4 °F - 8.6 °F 63% 30.39 in 10.0 mi Calm Calm - N/A   Clear
9:35 PM 19.4 °F - 10.4 °F 68% 30.39 in 10.0 mi Calm Calm - N/A   Clear
9:55 PM 19.4 °F 12.8 °F 8.6 °F 63% 30.37 in 10.0 mi NE 4.6 mph - N/A   Clear
10:15 PM 17.6 °F - 10.4 °F 73% 30.37 in 10.0 mi Calm Calm - N/A   Clear
10:35 PM 19.4 °F - 10.4 °F 68% 30.37 in 10.0 mi Calm Calm - N/A   Clear
10:55 PM 19.4 °F - 10.4 °F 68% 30.37 in 10.0 mi Calm Calm - N/A   Clear
11:15 PM 19.4 °F - 12.2 °F 74% 30.35 in 10.0 mi Calm Calm - N/A   Clear
11:35 PM 19.4 °F - 12.2 °F 74% 30.35 in 10.0 mi Calm Calm - N/A   Clear
11:55 PM 19.4 °F - 12.2 °F 74% 30.35 in 10.0 mi Calm Calm - N/A   Clear